Flag for U.S.A. Weather past 2 weeks in Manassas, Virginia, U.S.A.

68 °F


Feels Like: 68 °F
Forecast: 38 / 65 °F
Wind: 9 mph from Southwest

Location: Manassas Municipal

Current Time: Nov 27, 2015 at 2:22:24 PM

Latest Report: Nov 27, 2015 at 1:45 PM

Visibility: 10 mi

Pressure: 30.42 "Hg

Humidity: 56%

Dew point: 52 °F

Location of ManassasLocation

Historic Weather in Manassas — Graph


Manassas temperature yesterday

Maximum temperature yesterday: 64 °F (at 1:45 PM)
Minimum temperature yesterday: 30 °F (at 1:35 AM)
Average temperature yesterday: 41 °F

Past Weeks' High & Low Weather Summary

High68 °F (Nov 16, 1:55 PM)100% (Nov 15, 2:15 AM)30.79 "Hg (Nov 15, 2:15 AM)
Low25 °F (Nov 21, 6:15 AM)21% (Nov 13, 7:45 PM)29.59 "Hg (Nov 12, 4:45 PM)
Average44 °F75%30.26 "Hg
* Reported Nov 12 12:45 PM — Nov 27 12:45 PM, Manassas, Weather by CustomWeather, © 2015

Note: Actual official high and low records may vary slightly from our data, if they occured in-between our weather recording intervals... More about our weather records


Manassas weather history for previous 24 hours

Time TempWeatherWind HumidityBarometerVisibility
12:45 PM
Fri, Nov 27
64 °FSunny.7 mph64%30.45 "Hg10 mi
11:45 AM64 °FSunny.7 mph60%30.48 "Hg10 mi
10:45 AM57 °FSunny.No wind72%30.52 "Hg10 mi
9:55 AM48 °FSunny.No wind94%30.54 "Hg10 mi
7:55 AM37 °FSunny.No wind100%30.55 "Hg10 mi
6:15 AM34 °FPassing clouds.No wind100%30.56 "Hg8 mi
5:55 AM34 °FPassing clouds.No wind100%30.57 "Hg10 mi
5:35 AM34 °FLow clouds.No wind100%30.57 "Hg10 mi
5:15 AM34 °FLow clouds.No wind100%30.57 "Hg2 mi
4:55 AM36 °FPassing clouds.No wind100%30.57 "Hg8 mi
4:35 AM36 °FPassing clouds.No wind100%30.58 "Hg10 mi
4:15 AM36 °FPassing clouds.No wind100%30.58 "Hg10 mi
3:55 AM36 °FPassing clouds.No wind100%30.57 "Hg6 mi
3:35 AM36 °FClear.No wind100%30.58 "Hg9 mi
3:15 AM37 °FClear.No wind100%30.59 "Hg10 mi
2:55 AM36 °FClear.No wind100%30.60 "Hg9 mi
1:35 AM37 °FPassing clouds.No wind100%30.61 "Hg10 mi
1:15 AM37 °FClear.No wind100%30.61 "Hg10 mi
12:55 AM39 °FClear.No wind100%30.62 "Hg10 mi
12:35 AM39 °FPassing clouds.No wind100%30.62 "Hg10 mi
11:55 PM
Thu, Nov 26
39 °FPassing clouds.No wind100%30.65 "Hg10 mi
10:55 PM39 °FClear.3 mph93%30.64 "Hg10 mi
10:35 PM41 °FPassing clouds.No wind100%30.65 "Hg10 mi
9:55 PM45 °FPassing clouds.No wind93%30.64 "Hg10 mi
8:50 PM43 °FPassing clouds.No wind100%30.65 "Hg10 mi
7:55 PM43 °FClear.No wind100%30.65 "Hg10 mi
6:45 PM48 °FClear.No wind82%30.66 "Hg10 mi
5:45 PM52 °FClear.No wind72%30.65 "Hg10 mi
3:50 PM63 °FSunny.3 mph49%30.67 "Hg10 mi
2:45 PM64 °FSunny.7 mph46%30.68 "Hg10 mi
Weather by CustomWeather, © 2015

See weather overviewHow to use our weather pages